Location: Newark
(55.7083°N, 13.1992°E)
Time: 00:03:48
(UTC+00:00)

Envisat - Pass Details

Date: 12 October 2022
Orbit: 763 x 765 km, 98.2° (Epoch: 09 December)

Event Time Altitude Azimuth Distance (km) Brightness Sun altitude
Rises 03:18:51 0° 17° (NNE) 3,249 6.7 -19.3°
Reaches altitude 10° 03:21:13 10° 22° (NNE) 2,318 6.0 -19.0°
Maximum altitude 03:26:14 56° 100° (E) 917 3.7 -18.3°
Drops below altitude 10° 03:31:13 10° 179° (S) 2,300 5.3 -17.6°
Sets 03:33:34 0° 184° (S) 3,222 6.1 -17.3°
